Location: Unspecified
(0.0000°N, 0.0000°E)
Time: 23:04:49
(UTC+00:00)

Envisat - Pass Details

Date: 26 April 2018
Orbit: 764 x 766 km, 98.2° (Epoch: 24 April)

Event Time Altitude Azimuth Distance (km) Brightness Sun altitude
Exits shadow 20:54:43 14° 282° (WNW) 2,025 5.7 -42.7°
Drops below altitude 10° 20:56:03 10° 296° (WNW) 2,294 6.1 -43.0°
Sets 20:59:09 0° 317° (NW) 3,216 6.9 -43.7°
